Location: Camps Bay
(33.9517°S, 18.3844°E)
Time: 16:02:20
(UTC+00:00)

Meteor 1-28 Rocket - Pass Details

Date: 18 January 2020
Orbit: 503 x 524 km, 97.3° (Epoch: 25 February)

Event Time Altitude Azimuth Distance (km) Brightness Sun altitude
Rises 02:39:16 0° 168° (SSE) 2,647 7.6 -13.9°
Reaches altitude 10° 02:41:23 10° 166° (SSE) 1,755 6.7 -13.6°
Maximum altitude 02:45:10 80° 78° (ENE) 531 3.3 -12.9°
Drops below altitude 10° 02:48:56 10° 351° (N) 1,740 5.5 -12.3°
Enters shadow 02:49:00 10° 351° (N) 1,770 5.5 -12.3°
